Wisdom, Missouri
Current Conditions -  °F | °C
As of 11:55 PM on Saturday 25 Oct 2014 (Local Time) from KGLY Reporting Station
Haze Haze  
Wind Chill: 57°   Ceiling: Unl
Heat Index: 57°   Visibility: 5mi
Dew Point: 57°   Wind: 0mph
Humidity: 100%   Direction: NA
Pressure: 30.01"   Gusts: NA
Location:  38.3166°N, 93.2711°W
Report Text: KGLY 260455Z AUTO 00000KT 5SM BR CLR 14/14 A3001 RMK AO2
Loading
Personal Weather Stations






























Interactive Weather Map
Tropical Storm Tracking
New forecast layout! Learn more

10-Day Weather Forecast

Advertisements
Track Severe Weather on mobile